Waarnemingen

Advertentie
Mijn weer
Lamezia Terme, Italië (16362): temperatuur & dauwpunt: 16.07.2018 08:00:00 - 22.07.2018 08:00:00 (CEST)Lamezia Terme, Italië (16362): windsnelheid: 16.07.2018 08:00:00 - 22.07.2018 08:00:00 (CEST)Lamezia Terme, Italië (16362): windrichting: 16.07.2018 08:00:00 - 22.07.2018 08:00:00 (CEST)Lamezia Terme, Italië (16362): luchtdruk: 16.07.2018 08:00:00 - 22.07.2018 08:00:00 (CEST)Lamezia Terme, Italië (16362): zicht: 16.07.2018 08:00:00 - 22.07.2018 08:00:00 (CEST)Lamezia Terme, Italië (16362): neerslag: 16.07.2018 08:00:00 - 22.07.2018 08:00:00 (CEST)
Datum & Tijd tt [°C] td [°C] ff [km/u] ff [kn] dd ppp [hPa] vv [km] rr [mm]
22.07.2018 08:00:00 27,6 21,9 13 7 W 1012,2 10 0,0
22.07.2018 07:00:00 24,0 20,0 13 7 Z - 10 -
22.07.2018 06:00:00 20,0 16,0 4 2 - - 10 -
22.07.2018 05:00:00 20,4 16,4 8 4 OZO 1011,2 10 -
22.07.2018 04:00:00 22,0 15,0 8 4 OZO - 10 -
22.07.2018 03:00:00 22,0 15,0 9 5 O - 10 -
22.07.2018 02:00:00 22,8 15,9 9 5 ONO 1011,7 10 0,0
22.07.2018 01:00:00 23,0 19,0 8 4 OZO - 10 -
22.07.2018 00:00:00 25,0 19,0 13 7 O - 10 -
21.07.2018 23:00:00 25,1 18,4 13 7 O 1012,3 20 -
21.07.2018 22:00:00 27,0 20,0 18 10 ONO - 10 -
21.07.2018 21:00:00 28,0 20,0 21 11 ONO - 10 -
21.07.2018 20:00:00 28,9 19,8 21 11 ONO 1012,1 20 0,0
21.07.2018 19:00:00 30,0 22,0 4 2 - - 10 -
21.07.2018 18:00:00 31,0 19,0 9 5 WZW - 10 -
21.07.2018 17:00:00 32,0 18,6 11 6 W 1013,0 20 -
21.07.2018 16:00:00 34,0 13,0 8 4 ZZW - 10 -
21.07.2018 15:00:00 33,0 14,0 9 5 W - 10 -
21.07.2018 14:00:00 32,6 13,4 11 6 W 1014,0 20 0,0
21.07.2018 13:00:00 31,0 12,0 9 5 W - 10 -
21.07.2018 12:00:00 29,0 15,0 11 6 W - 10 -
21.07.2018 11:00:00 28,3 20,1 8 4 WZW 1015,2 20 -
21.07.2018 10:00:00 26,0 21,0 9 5 WZW - 10 -
21.07.2018 09:00:00 26,0 21,0 4 2 - - 10 -
21.07.2018 08:00:00 24,7 21,2 2 1 ZZO 1014,8 10 0,0
21.07.2018 07:00:00 21,0 19,0 4 2 - - 10 -
21.07.2018 06:00:00 20,0 19,0 4 2 O - 10 -
21.07.2018 05:00:00 21,0 21,0 4 2 O 1014,7 10 -
21.07.2018 04:00:00 22,0 22,0 0 0 N - 10 -
21.07.2018 03:00:00 23,0 21,0 4 2 - - 10 -
21.07.2018 02:00:00 23,7 21,6 5 3 NO 1014,9 10 0,0
21.07.2018 01:00:00 23,0 20,0 4 2 - - 10 -
21.07.2018 00:00:00 24,0 22,0 2 1 - - 10 -
20.07.2018 23:00:00 23,8 21,8 8 4 ZW 1015,3 10 -
20.07.2018 22:00:00 25,0 22,0 11 6 WZW - 10 -
20.07.2018 21:00:00 26,0 21,0 15 8 WZW - 10 -
20.07.2018 20:00:00 26,0 21,8 18 10 W 1014,4 10 0,0
20.07.2018 19:00:00 27,0 22,0 24 13 WZW - 10 -
20.07.2018 18:00:00 28,0 22,0 24 13 WZW - 10 -
20.07.2018 17:00:00 27,7 22,4 26 14 WZW 1014,5 10 -
20.07.2018 16:00:00 28,0 22,0 28 15 WZW - 10 -
20.07.2018 15:00:00 28,0 22,0 28 15 W - 10 -
20.07.2018 14:00:00 28,3 22,5 26 14 WZW 1015,1 10 0,0
20.07.2018 13:00:00 27,0 22,0 21 11 WZW - 10 -
20.07.2018 12:00:00 28,0 22,0 22 12 WZW - 10 -
20.07.2018 11:00:00 27,4 22,4 21 11 WZW 1015,4 10 -
20.07.2018 10:00:00 27,0 22,0 16 9 ZW - 10 -
20.07.2018 09:00:00 26,0 22,0 11 6 ZW - 10 -
20.07.2018 08:00:00 25,0 21,7 8 4 ZW 1014,5 10 0,0
20.07.2018 07:00:00 24,0 21,0 0 0 N - 10 -
20.07.2018 06:00:00 23,0 21,0 0 0 N - 10 -
20.07.2018 05:00:00 23,1 20,9 0 0 N 1014,0 10 -
20.07.2018 04:00:00 - - - - - - - -
20.07.2018 03:00:00 23,0 22,0 5 3 - - 10 -
20.07.2018 02:00:00 23,2 21,6 5 3 - 1014,3 10 0,0
20.07.2018 01:00:00 24,0 22,0 2 1 - - 10 -
20.07.2018 00:00:00 25,0 22,0 5 3 ZZW - 10 -
19.07.2018 23:00:00 25,5 22,5 9 5 ZW 1014,4 10 -
19.07.2018 22:00:00 26,0 23,0 13 7 WZW - 10 -
19.07.2018 21:00:00 26,0 23,0 9 5 ZZW - 10 -
19.07.2018 20:00:00 26,0 22,8 11 6 ZZW 1013,2 10 0,0
19.07.2018 19:00:00 27,0 23,0 24 13 WZW - 10 -
19.07.2018 18:00:00 28,0 23,0 22 12 WZW - 10 -
19.07.2018 17:00:00 27,6 22,6 24 13 WZW 1013,4 10 -
19.07.2018 16:00:00 28,0 23,0 26 14 WZW - 10 -
19.07.2018 15:00:00 28,0 22,0 24 13 WZW - 10 -
19.07.2018 14:00:00 28,2 22,3 21 11 WZW 1014,0 10 0,0
19.07.2018 13:00:00 28,0 22,0 15 8 WZW - 10 -
19.07.2018 12:00:00 27,0 23,0 18 10 WZW - 10 -
19.07.2018 11:00:00 26,6 22,4 16 9 WZW 1015,3 10 -
19.07.2018 10:00:00 27,0 23,0 13 7 ZW - 10 -
19.07.2018 09:00:00 26,0 24,0 11 6 ZW - 10 -
19.07.2018 08:00:00 24,8 23,4 5 3 ZZW 1014,9 10 0,0
19.07.2018 07:00:00 23,0 22,0 5 3 - - 10 -
19.07.2018 06:00:00 22,0 22,0 2 1 - - 10 -
19.07.2018 05:00:00 22,6 20,9 5 3 Z 1014,8 10 -
19.07.2018 04:00:00 - - - - - - - -
19.07.2018 03:00:00 23,0 22,0 4 2 - - 10 -
19.07.2018 02:00:00 23,3 21,8 4 2 - 1015,0 10 0,0
19.07.2018 01:00:00 24,0 22,0 5 3 - - 10 -
19.07.2018 00:00:00 25,0 22,0 9 5 WZW - 10 -
18.07.2018 23:00:00 25,1 21,9 11 6 WZW 1015,3 10 -
18.07.2018 22:00:00 25,0 22,0 13 7 ZW - 10 -
18.07.2018 21:00:00 25,0 22,0 15 8 WZW - 10 -
18.07.2018 20:00:00 25,8 22,3 18 10 WZW 1014,0 10 0,0
18.07.2018 19:00:00 27,0 22,0 24 13 W - 10 -
18.07.2018 18:00:00 27,0 23,0 28 15 WZW - 10 -
18.07.2018 17:00:00 27,7 22,7 29 16 W 1014,0 10 -
18.07.2018 16:00:00 29,0 23,0 29 16 W - 10 -
18.07.2018 15:00:00 27,0 22,0 29 16 WZW - 10 -
18.07.2018 14:00:00 28,0 23,2 29 16 W 1014,3 10 -
18.07.2018 13:00:00 28,0 23,0 26 14 W - 10 -
18.07.2018 12:00:00 - - - - - - - -
18.07.2018 11:00:00 28,4 23,1 22 12 WZW 1014,3 10 -
18.07.2018 10:00:00 26,0 22,0 22 12 WZW - 10 -
18.07.2018 09:00:00 26,0 23,0 16 9 WZW - 9 -
18.07.2018 08:00:00 25,2 22,9 21 11 W 1013,6 10 -
18.07.2018 07:00:00 23,0 22,0 18 10 WNW - 5 -
18.07.2018 06:00:00 24,0 21,0 22 12 W - 10 -
18.07.2018 05:00:00 24,0 21,0 22 12 W - 10 -
18.07.2018 04:00:00 24,0 21,0 18 10 W - 10 -
18.07.2018 03:00:00 24,0 21,0 21 11 W - 10 -
18.07.2018 02:00:00 24,3 21,5 21 11 W 1013,1 10 -
18.07.2018 01:00:00 24,0 22,0 16 9 W - 10 -
18.07.2018 00:00:00 24,0 22,0 15 8 WNW - 10 -
17.07.2018 23:00:00 24,0 21,7 18 10 W 1013,1 10 -
17.07.2018 22:00:00 25,0 21,0 13 7 W - 10 -
17.07.2018 21:00:00 25,0 20,0 26 14 W - 10 -
17.07.2018 20:00:00 25,2 20,9 26 14 W 1011,6 10 -
17.07.2018 19:00:00 26,0 21,0 31 17 W - 10 -
17.07.2018 18:00:00 25,0 20,0 37 20 W - 10 -
17.07.2018 17:00:00 24,5 21,5 35 19 W 1011,2 10 -
17.07.2018 16:00:00 28,0 20,0 37 20 W - 10 -
17.07.2018 15:00:00 27,0 20,0 37 20 W - 10 -
17.07.2018 14:00:00 28,6 19,5 41 22 W 1011,2 10 0,0
17.07.2018 13:00:00 29,0 22,0 39 21 W - 10 -
17.07.2018 12:00:00 29,0 22,0 39 21 WZW - 8 -
17.07.2018 11:00:00 28,2 22,7 37 20 W 1010,9 8 -
17.07.2018 10:00:00 27,0 23,0 34 18 W - 8 -
17.07.2018 09:00:00 27,0 23,0 29 16 W - 10 -
17.07.2018 08:00:00 27,1 22,5 29 16 W 1011,0 10 0,0
17.07.2018 07:00:00 21,0 18,0 8 4 ZO - 10 -
17.07.2018 06:00:00 21,0 17,0 4 2 N - 10 -
17.07.2018 05:00:00 21,0 17,0 4 2 - - 10 -
17.07.2018 04:00:00 21,0 17,0 5 3 ONO - 10 -
17.07.2018 03:00:00 21,0 18,0 9 5 O - 10 -
17.07.2018 02:00:00 23,4 20,2 9 5 ZZW 1011,9 10 0,0
17.07.2018 01:00:00 23,0 21,0 4 2 - - 10 -
17.07.2018 00:00:00 24,0 22,0 8 4 O - 10 -
16.07.2018 23:00:00 24,6 22,6 13 7 ONO 1011,5 10 -
16.07.2018 22:00:00 26,0 23,0 8 4 WZW - 10 -
16.07.2018 21:00:00 26,0 23,0 22 12 WZW - 10 -
16.07.2018 20:00:00 26,7 23,1 31 17 WZW 1014,6 10 0,0
16.07.2018 19:00:00 28,0 23,0 29 16 W - 10 -
16.07.2018 18:00:00 - - - - - - - -
16.07.2018 17:00:00 - - - - - - - -
16.07.2018 16:00:00 30,0 22,0 21 11 W - 10 -
16.07.2018 15:00:00 30,0 21,0 11 6 W - 10 -
16.07.2018 14:00:00 28,9 22,5 15 8 W 1015,3 10 0,0
16.07.2018 13:00:00 29,0 23,0 26 14 WZW - 10 -
16.07.2018 12:00:00 28,0 23,0 22 12 W - 9 -
16.07.2018 11:00:00 28,7 23,3 22 12 W 1016,7 10 -
16.07.2018 10:00:00 28,0 23,0 24 13 W - 8 -
16.07.2018 09:00:00 26,0 23,0 15 8 ZW - 9 -
16.07.2018 08:00:00 25,8 21,7 4 2 ZW 1015,0 10 0,0

tt = temperatuur
td = dauwpunt
ff = windsnelheid
dd = windrichting
ppp = luchtdruk
vv = zicht
rr = neerslag

Weerstations in de omgeving